Location: ????????
(60.5616°N, 46.8254°E)
Time: 08:57:10
(UTC+00:00)

USA 238 DEB - Pass Details

Date: 18 February 2020
Orbit: 1020 x 1192 km, 63.4° (Epoch: 12 March)

Event Time Altitude Azimuth Distance (km) Brightness Sun altitude
Rises 17:29:11 0° 297° (WNW) 3,885 7.9 -27.1°
Reaches altitude 10° 17:31:48 10° 296° (WNW) 2,951 7.0 -27.4°
Maximum altitude 17:38:50 82° 211° (SSW) 1,146 3.7 -28.2°
Enters shadow 17:39:55 67° 141° (SE) 1,224 3.7 -28.3°
